Temp
24 24 24 24 24 24 24 24 24 24 24 24 24 23 23 23 23 23 23 24 24 24 24 24 24 24 24 24 24 24 24 24 24 24 24 24 23 23 23 23 23 23 22 22 22 22 22 21 21 21 21 22 22 22 22 22 21 21 21 21 21 21 21 21 21 21 21 21 21 20 20 20 20 20 20 20 20 20 20 20 20 20 20 20 20
24 24 24 24 24 24 24 24 24 24 23 23 23 23 23 23 23 23 24 24 24 24 24 24 24 24 24 24 24 24 24 24 24 24 24 24 24 24 24 23 23 23 23 22 22 22 22 22 21 21 21 21 22 22 22 22 21 21 21 21 21 21 21 21 21 21 21 21 21 21 21 20 20 20 20 20 20 20 20 20 21 21 21 21 21
24 24 24 24 24 24 24 24 24 24 24 23 24 24 24 24 24 24 24 24 24 24 24 24 24 24 25 25 25 25 24 24 24 24 24 24 24 24 24 24 23 23 23 23 22 22 22 22 21 21 21 21 21 22 22 22 22 22 21 21 21 21 21 21 21 21 21 21 21 21 21 21 21 21 20 20 20 20 20 21 21 21 21 21 21
24 24 24 24 24 24 24 24 24 24 24 24 24 24 24 24 24 24 24 24 24 24 24 24 24 25 25 25 25 25 25 24 24 24 24 24 24 24 24 23 23 23 23 23 22 22 22 22 21 21 21 21 21 21 21 21 22 22 21 21 21 21 21 21 21 21 21 21 21 21 21 21 21 21 21 21 21 20 20 20 21 21 21 21 21
24 24 24 24 24 24 24 24 24 24 24 24 24 24 24 23 23 24 24 24 24 24 24 24 24 25 25 25 25 25 25 25 24 25 24 24 24 23 23 23 23 23 23 22 22 22 22 22 22 22 21 21 21 21 21 21 21 21 21 21 21 21 21 21 21 21 21 21 21 21 21 21 21 21 21 21 21 21 21 20 20 20 21 21 21
24 24 24 24 24 24 24 25 24 24 24 24 23 23 23 23 23 23 24 24 24 24 24 24 24 25 25 25 25 25 25 25 24 24 24 24 24 23 23 23 23 23 23 23 22 22 22 22 22 22 22 22 21 21 21 21 21 21 21 21 21 21 21 21 21 21 21 21 21 21 21 21 21 21 21 21 21 21 21 21 21 21 20 20 21
25 25 24 24 24 24 25 24 24 24 24 24 23 23 23 23 23 23 24 23 24 24 24 24 24 24 24 25 25 25 25 24 24 24 24 24 24 23 23 23 23 23 23 23 23 22 22 22 22 22 21 21 21 21 21 21 21 21 21 21 21 21 21 21 21 21 21 21 21 21 21 21 21 21 21 21 21 21 21 21 21 21 21 21 21
25 25 24 24 24 25 25 24 24 24 24 24 23 23 23 23 23 23 23 23 24 24 24 24 24 24 25 25 24 25 24 24 24 24 24 24 24 23 23 23 23 23 23 23 22 22 22 22 21 21 21 21 21 21 21 20 20 20 21 20 20 21 21 21 21 21 21 21 21 21 21 21 21 21 21 21 21 21 21 21 21 21 21 21 21
25 25 24 24 25 25 25 24 24 24 24 24 23 23 23 23 23 23 23 23 23 23 23 24 24 24 25 24 24 25 24 24 24 24 24 24 24 24 23 23 23 23 23 22 22 22 22 22 21 21 21 21 21 21 20 21 20 20 21 21 21 21 20 20 21 21 21 21 21 21 21 21 20 20 21 21 21 21 21 21 21 21 21 21 21
24 24 24 24 24 25 24 24 24 24 24 24 23 23 23 23 23 23 23 23 23 23 23 24 24 25 25 24 24 25 24 24 24 24 24 24 24 24 23 23 23 23 23 22 22 22 22 22 22 21 21 21 21 21 21 21 21 21 21 21 21 21 20 20 20 21 21 21 21 21 21 21 20 20 21 21 21 21 21 21 21 21 21 21 21
24 24 24 24 24 24 24 24 24 24 24 24 23 23 23 23 23 23 23 23 23 23 23 24 24 24 24 24 24 24 24 24 24 24 24 24 24 24 23 23 23 23 22 22 22 22 22 22 22 21 21 21 21 21 21 21 21 21 21 20 20 21 21 21 21 21 21 21 21 21 21 21 21 20 20 20 20 20 20 20 21 21 21 21 21
24 24 24 24 24 24 24 24 24 24 24 24 23 23 23 23 23 23 23 23 23 23 23 24 24 24 24 24 24 24 24 24 24 24 24 24 24 24 23 23 23 22 22 22 22 22 22 21 21 21 21 21 21 21 21 21 21 21 21 21 21 21 21 21 20 20 20 21 21 21 21 21 21 21 21 20 20 20 20 20 20 21 21 21 20
24 24 24 24 24 24 24 24 24 24 23 23 23 23 23 23 23 23 23 23 23 23 23 24 24 24 24 24 24 24 24 24 24 24 24 24 24 24 24 23 23 22 22 22 22 21 21 21 21 21 21 21 21 21 21 21 21 21 21 21 21 21 20 20 20 20 20 20 20 20 20 20 20 20 20 20 20 20 20 20 20 20 20 20 20
24 24 24 24 23 23 24 24 24 24 23 23 23 23 23 23 23 23 23 23 23 23 24 24 24 23 23 23 23 23 24 24 24 24 24 24 24 24 24 24 23 22 22 22 22 21 21 21 21 21 21 21 21 21 21 21 21 20 20 20 20 20 20 20 20 20 20 20 20 20 20 20 20 20 20 20 20 20 20 20 20 20 20 20 20
24 24 24 24 23 23 24 24 23 23 23 23 23 23 23 23 23 23 23 23 23 23 23 24 24 23 23 23 23 22 23 23 24 24 24 24 24 24 24 24 23 22 22 22 22 22 21 21 21 21 21 21 21 21 21 21 20 20 20 20 20 20 20 20 20 20 20 20 20 20 20 20 20 20 20 20 20 20 20 20 20 20 20 20 20
24 24 24 24 23 23 23 23 23 23 23 23 23 23 23 23 23 23 23 23 23 23 23 23 24 23 23 23 22 22 22 23 23 24 24 24 24 24 24 24 24 23 22 22 22 22 22 22 21 21 21 21 21 20 21 20 20 20 20 20 20 20 20 20 19 19 19 19 19 20 20 20 20 20 20 20 20 20 20 20 20 20 20 20 20
24 24 24 23 23 23 23 23 23 23 23 23 23 23 23 23 23 23 23 23 23 23 23 23 23 23 23 23 22 22 22 22 23 24 24 24 24 24 24 24 24 24 23 22 22 22 22 22 21 21 21 21 21 20 20 20 20 20 20 20 21 21 20 20 19 19 19 19 19 19 20 20 20 20 20 20 20 20 20 20 19 19 20 20 20
24 24 24 24 23 23 23 23 23 23 23 23 23 23 23 23 23 23 23 23 23 23 23 23 23 23 24 24 23 23 23 22 23 23 23 24 24 23 24 24 24 24 23 23 22 22 22 22 21 21 21 21 21 21 20 20 20 21 21 21 21 21 21 20 20 20 20 20 20 20 20 20 20 20 20 20 19 19 19 19 19 19 20 20 20
24 24 24 24 24 23 23 23 23 23 23 23 23 23 24 23 23 23 23 23 23 23 23 23 23 23 23 23 23 23 23 23 22 22 23 23 24 24 24 24 24 24 23 23 23 22 22 22 22 21 21 21 21 21 21 20 20 20 20 21 21 21 21 21 21 21 21 21 20 20 20 20 20 20 20 20 20 20 20 19 19 19 19 19 20
24 24 24 24 24 23 23 23 23 23 23 23 23 24 23 23 23 23 23 23 23 22 23 23 23 23 23 23 23 23 23 23 23 23 23 23 23 23 23 24 24 23 23 23 23 23 22 22 22 22 22 21 21 21 21 21 20 20 20 20 20 21 21 21 21 21 21 21 21 21 20 20 20 20 20 20 20 20 20 20 20 20 20 20 20
24 24 24 24 24 23 23 23 23 23 24 24 23 23 23 23 23 23 23 23 22 22 23 23 23 23 23 23 23 23 23 23 23 23 23 23 23 23 23 23 23 23 23 23 23 23 22 22 22 22 22 22 22 21 21 21 21 21 21 21 20 20 20 21 21 21 21 21 21 21 21 21 21 20 20 20 20 20 20 20 20 20 20 20 20
24 24 24 24 24 24 24 23 23 24 24 24 23 23 23 23 23 23 23 23 22 22 23 22 22 23 23 23 23 23 23 23 23 23 23 22 22 22 22 22 22 23 23 23 23 23 23 23 22 22 22 22 22 22 21 21 21 21 21 21 21 21 20 20 20 21 21 21 21 21 21 21 21 21 21 20 20 20 20 20 20 20 20 20 20
24 24 24 24 24 24 24 24 24 24 24 23 23 24 24 24 23 23 22 22 22 22 22 22 22 23 23 23 23 23 23 23 23 23 23 22 22 22 22 23 23 23 24 23 23 23 23 23 22 22 22 22 22 22 22 21 21 21 21 21 21 21 21 20 20 20 20 20 20 20 20 20 20 20 20 20 20 20 20 20 20 20 20 20 20
24 24 24 24 24 24 24 24 24 24 24 24 24 24 24 24 23 22 22 22 23 22 22 23 22 23 23 23 23 23 23 23 23 23 23 23 22 22 22 22 22 23 23 23 23 23 23 23 23 22 22 22 22 22 22 22 21 21 21 21 21 21 21 20 20 20 20 20 20 20 20 20 20 20 20 20 20 20 20 20 20 20 20 20 20
24 24 24 24 24 24 24 24 24 24 24 24 24 24 24 23 23 23 23 23 23 22 22 23 23 23 23 23 23 23 23 23 23 23 23 23 23 22 22 22 22 22 23 23 23 23 23 23 23 23 23 22 22 22 22 22 22 21 21 21 21 21 20 20 20 20 20 20 20 20 20 20 19 19 19 19 19 19 19 20 20 20 20 20 20
24 24 24 24 24 24 24 24 24 24 24 24 24 24 23 23 23 23 23 23 23 22 22 23 23 23 23 23 23 23 23 23 23 23 23 23 23 22 22 22 22 22 22 22 22 22 23 23 23 23 23 22 22 22 22 22 22 22 22 21 21 21 21 20 20 20 20 20 20 20 20 19 19 19 19 19 19 19 19 19 19 20 20 20 20
24 24 24 24 24 24 24 24 24 24 24 24 24 24 23 23 23 23 23 23 23 22 23 23 23 23 23 23 23 23 23 23 23 23 23 23 23 22 22 21 21 21 21 22 22 22 22 22 23 23 22 22 22 22 22 22 22 22 21 21 21 21 21 20 20 20 20 20 20 20 19 19 19 19 19 19 19 19 19 19 19 19 19 20 20
24 24 24 24 24 24 24 24 24 24 24 24 24 23 23 23 23 23 23 23 23 23 23 23 23 23 23 23 23 23 23 23 22 22 22 22 22 22 22 21 21 20 20 21 21 21 22 22 22 22 23 22 22 22 22 22 22 22 21 21 21 20 20 20 20 20 20 20 20 20 19 19 19 19 19 19 19 19 19 19 19 19 19 19 19
25 24 24 24 24 24 24 24 24 24 24 24 23 23 23 23 23 23 22 22 23 23 23 23 23 23 23 23 23 23 23 23 23 22 22 22 22 22 22 21 21 20 20 20 20 20 21 21 21 22 22 22 22 22 22 22 22 22 21 21 21 21 20 20 20 20 20 20 20 19 19 19 19 19 19 19 19 19 19 19 19 19 19 19 19
25 25 25 24 24 24 24 24 24 24 24 24 23 23 23 23 22 23 22 22 23 23 23 23 22 22 22 22 22 22 22 22 22 22 22 22 22 22 22 21 21 21 20 20 20 20 21 21 21 21 21 22 22 22 22 22 22 22 22 22 22 21 21 21 21 20 20 20 19 19 19 19 19 19 19 19 19 19 19 19 19 19 19 19 19
25 25 25 24 24 24 24 24 24 24 24 23 23 23 22 22 22 22 22 22 22 22 22 23 23 22 22 22 22 22 22 22 22 22 22 22 22 22 22 21 21 21 20 20 19 20 21 21 21 21 21 21 21 21 21 21 21 21 21 21 22 22 22 21 21 21 21 20 20 20 19 19 19 19 19 19 19 19 19 19 19 19 19 19 19
25 25 25 25 24 24 24 24 24 24 23 23 23 23 22 22 22 22 22 22 22 22 22 22 22 22 22 22 22 22 22 22 22 22 22 22 22 22 21 21 21 21 21 20 19 20 21 21 21 21 21 21 21 21 21 21 21 21 21 21 21 21 21 21 21 21 21 21 20 20 20 20 20 19 19 19 19 19 19 19 19 19 19 19 19
25 25 25 25 24 24 24 24 24 24 23 23 23 22 22 22 22 22 22 22 22 22 22 22 22 22 22 22 22 22 22 22 22 22 22 22 22 22 21 21 21 21 21 21 20 20 20 21 21 21 21 21 21 21 21 21 21 21 21 21 21 21 21 21 21 21 21 21 21 20 20 20 20 20 20 19 19 19 19 19 19 19 19 19 19
25 25 25 25 25 24 24 24 24 24 23 23 23 22 22 22 22 22 22 22 22 22 22 22 22 22 22 22 22 22 22 22 22 22 22 22 22 22 21 21 21 21 21 21 20 20 20 21 21 21 21 21 21 21 21 21 21 21 21 21 21 21 20 20 20 20 20 20 20 20 20 20 20 20 20 20 20 20 20 19 19 19 19 19 19
25 25 25 25 25 25 24 24 24 24 23 23 23 23 22 22 22 22 22 22 22 22 22 22 22 22 22 22 22 22 22 22 22 22 22 22 22 22 21 21 21 21 21 21 21 20 20 20 21 21 21 21 21 21 21 21 21 21 20 20 20 20 20 20 20 20 20 20 20 20 20 20 20 20 20 20 20 20 20 20 20 20 19 19 19
25 25 25 25 25 24 24 24 24 24 23 23 23 22 22 22 22 22 22 22 22 22 22 22 22 22 22 22 22 22 22 22 22 22 22 22 22 22 22 21 21 21 21 21 21 21 20 20 20 21 21 21 21 21 21 21 21 21 21 20 20 20 20 20 20 20 20 20 20 20 20 20 20 20 20 20 20 20 20 20 20 20 20 19 19
25 25 25 25 24 24 24 24 24 24 23 23 23 22 22 22 22 22 22 22 22 22 22 22 22 22 22 22 22 22 22 22 22 22 22 22 22 22 22 21 21 21 21 21 21 21 20 20 20 20 20 20 21 21 21 21 21 21 20 20 20 20 20 20 20 20 19 20 20 20 20 20 20 20 20 20 20 20 20 20 20 20 20 20 20
25 25 25 24 24 24 24 24 24 23 23 23 23 22 22 22 22 22 22 22 22 22 22 22 22 22 22 22 22 22 22 22 22 22 22 22 22 22 22 21 21 21 21 21 20 20 20 20 20 20 20 20 20 20 20 20 20 20 20 20 20 20 20 20 20 20 20 20 20 20 20 20 20 20 20 20 20 19 19 19 20 20 20 20 20
25 25 24 24 24 24 24 24 24 23 23 23 23 23 22 22 22 22 22 22 22 22 22 22 22 22 22 22 22 22 22 22 22 22 22 22 22 21 21 21 21 21 21 20 20 20 20 20 20 20 20 20 20 20 20 20 20 20 20 19 19 20 20 19 20 20 20 19 19 19 19 19 19 19 19 19 19 19 19 19 19 19 19 19 19
25 25 24 24 24 24 24 23 23 23 23 23 22 22 22 22 22 22 22 22 22 21 22 22 22 22 22 22 22 22 22 22 22 22 22 22 22 22 21 21 21 21 20 20 20 20 20 19 19 19 19 19 19 19 19 19 19 19 20 19 19 19 20 19 19 19 19 19 19 19 19 19 19 19 19 19 19 19 19 19 19 19 19 19 19
25 25 24 24 24 23 23 23 23 23 23 22 22 22 22 22 22 22 22 22 21 21 21 21 21 22 22 21 22 21 21 22 22 22 22 22 22 21 21 21 21 21 20 20 20 20 19 19 19 19 18 18 18 18 18 19 19 19 19 19 19 19 19 19 19 19 19 18 18 18 18 18 18 18 18 18 18 18 18 18 18 18 18 18 18
25 25 24 24 24 23 23 23 23 23 22 22 22 22 22 22 22 22 22 21 21 21 21 21 21 21 21 21 21 21 21 22 22 22 22 21 21 21 21 21 21 20 20 20 20 20 19 18 18 18 18 18 18 18 18 19 19 19 19 19 18 18 18 18 18 18 18 18 18 18 18 18 18 18 18 17 17 17 17 18 18 18 18 18 18
25 25 24 24 23 23 23 23 22 22 22 22 22 22 22 22 22 22 22 22 22 21 21 21 21 21 21 21 21 21 21 21 21 21 21 21 21 21 21 21 20 20 20 20 20 20 19 18 18 18 17 17 18 18 18 18 18 18 18 18 18 17 17 17 16 17 18 17 17 17 17 17 17 17 16 17 17 17 17 17 18 18 18 18 18
25 25 24 24 24 23 23 22 22 22 22 22 22 22 22 22 21 21 21 22 22 21 21 21 21 21 21 21 21 21 21 21 21 21 21 21 21 21 21 21 21 21 20 20 20 19 19 18 18 17 17 17 17 17 17 17 17 18 17 17 17 17 16 16 16 16 17 17 17 16 16 16 16 16 16 16 17 17 17 18 18 18 18 18 18
25 25 25 24 24 23 23 22 22 22 22 22 22 22 21 21 21 21 21 21 21 21 21 21 21 21 21 21 21 21 21 21 21 21 21 21 21 21 21 21 20 20 20 19 19 19 19 18 18 17 17 17 17 17 18 17 17 17 17 17 17 16 16 16 16 16 17 17 16 15 15 16 16 15 16 16 17 17 18 18 18 18 18 18 18
25 25 24 24 24 23 23 23 22 22 22 22 22 21 21 20 20 20 21 21 21 21 21 21 21 21 21 21 21 21 20 20 20 20 20 20 21 21 21 20 20 20 19 19 19 19 18 18 17 17 18 17 17 18 18 17 17 16 16 16 16 16 16 16 16 16 16 17 16 15 14 15 16 16 16 16 17 17 18 18 18 18 18 18 17
25 25 25 24 24 23 23 23 22 22 22 22 22 21 21 20 20 20 21 21 21 21 21 21 21 21 21 21 21 20 20 20 20 20 20 20 21 20 20 19 19 19 19 18 18 18 18 18 17 17 18 18 17 17 17 17 16 16 16 16 16 16 16 16 16 16 16 17 17 15 14 15 16 16 16 17 17 17 17 17 17 17 17 17 17
25 25 25 24 24 23 23 23 23 22 22 22 22 21 21 20 20 20 21 21 21 21 21 21 21 21 21 20 20 20 20 20 20 20 20 20 20 20 19 19 19 18 18 18 18 18 17 17 17 17 17 17 17 16 16 16 16 16 16 16 16 16 15 15 15 15 16 17 17 15 15 15 16 16 16 16 16 16 17 17 17 17 17 17 17
25 25 24 24 24 24 23 23 23 23 22 22 22 22 22 21 20 20 21 21 21 21 21 21 21 21 20 20 20 20 20 20 20 20 20 20 20 19 19 18 18 18 18 18 17 17 17 17 17 17 16 16 16 16 16 16 16 16 16 16 16 16 15 14 14 14 15 16 16 16 15 15 16 15 15 15 15 16 16 16 16 16 16 16 16
25 24 24 24 24 24 24 23 23 23 22 22 22 22 22 22 21 21 21 21 20 20 20 20 20 20 20 20 20 20 20 20 20 20 20 19 19 19 18 18 17 17 17 17 16 17 17 17 17 17 17 17 17 17 17 16 16 16 16 16 16 16 14 14 14 14 15 15 15 15 15 15 15 15 15 15 15 15 15 15 15 16 15 15 15
25 24 24 24 23 24 24 23 23 22 22 22 22 22 22 22 22 22 21 20 20 20 20 20 20 20 20 20 20 19 19 19 19 19 19 19 19 18 18 17 17 16 16 16 16 16 16 17 17 16 16 17 17 17 16 16 16 16 16 16 16 15 14 14 14 14 14 14 15 15 15 15 14 14 14 14 14 14 15 15 15 15 15 15 15
Height
852 853 854 854 854 855 855 855 854 855 855 856 856 856 856 856 857 857 857 858 858 858 857 856 856 855 855 855 854 855 855 855 855 855 855 855 856 856 856 856 857 857 857 858 859 860 860 861 862 863 863 864 864 865 865 866 867 867 868 869 870 871 872 873 874 875 876 877 878 878 879 880 880 881 881 882 882 883 883 883 883 884 884 884 884
851 852 853 853 854 854 854 853 854 854 854 855 855 856 856 856 856 856 857 857 857 857 856 855 855 855 855 855 854 854 854 854 854 854 854 855 855 855 855 855 856 856 856 857 858 859 860 860 861 862 862 863 863 864 865 865 866 867 868 869 870 870 871 872 873 874 875 875 876 877 878 879 879 879 880 881 881 882 882 882 883 883 883 884 884
850 851 852 852 853 853 853 852 853 853 853 854 855 855 855 855 855 855 856 856 856 856 856 855 854 855 854 854 854 854 854 854 854 853 853 854 854 854 854 855 855 855 856 856 857 858 859 860 860 861 861 862 862 863 864 865 865 866 867 869 869 870 870 871 872 873 873 874 875 876 876 877 878 878 879 879 880 881 881 882 882 882 883 883 883
849 850 850 851 852 852 852 852 852 852 853 853 854 854 854 854 854 854 854 854 855 855 855 855 854 854 854 854 853 853 853 853 853 853 853 853 854 854 854 854 855 855 856 856 856 857 858 859 859 860 860 861 862 863 863 864 865 866 867 868 869 870 870 871 871 872 872 873 874 874 875 875 876 877 877 878 879 879 880 881 881 881 882 882 882
848 849 849 850 850 851 851 851 852 852 852 853 853 853 853 853 853 853 853 853 853 854 854 854 853 853 853 853 853 852 853 853 853 853 853 853 854 854 854 854 855 855 856 856 856 857 857 858 858 859 860 860 861 862 863 864 865 866 867 868 868 869 870 871 871 872 872 872 872 873 873 874 874 875 876 877 877 878 878 879 880 880 880 881 881
846 847 847 848 849 849 850 850 850 851 851 852 852 852 852 852 852 852 852 852 852 852 853 853 853 852 852 852 852 852 852 852 852 853 853 853 854 854 854 854 854 855 856 856 856 857 857 857 857 858 858 859 860 861 862 864 865 866 866 866 867 868 869 870 871 871 871 871 871 871 872 872 873 874 874 875 875 876 877 877 878 878 879 879 880
844 845 845 846 847 847 848 848 849 849 850 851 851 851 851 851 851 851 851 851 851 851 852 852 852 852 851 851 852 851 851 851 851 852 853 853 853 853 853 853 854 854 855 855 856 856 857 857 857 857 857 858 859 861 862 863 864 864 865 866 867 867 868 869 870 870 870 870 870 870 871 871 872 873 873 873 874 874 875 875 876 877 877 878 878
842 843 843 844 845 846 846 847 847 848 849 850 850 850 851 851 851 851 851 850 851 851 851 851 851 851 851 851 851 851 850 851 851 851 852 852 853 853 853 853 853 853 854 855 856 856 856 856 857 857 857 858 859 860 861 862 863 863 864 865 866 866 866 867 868 869 869 869 869 869 870 870 870 871 871 872 872 873 873 874 874 875 875 876 876
840 841 842 842 843 844 845 846 847 848 848 849 849 849 850 850 850 850 850 850 850 850 850 850 850 850 850 850 851 850 850 850 851 851 851 852 852 853 852 852 853 853 853 854 855 855 855 855 856 857 857 858 859 860 860 861 862 862 863 864 864 864 865 866 867 867 867 868 868 868 869 869 869 870 870 870 871 871 871 872 872 873 874 874 875
839 839 840 841 842 844 844 845 846 847 847 848 848 849 849 849 849 850 850 850 850 850 850 850 850 850 850 851 851 850 850 850 851 851 851 851 852 852 853 853 853 853 853 854 855 855 855 855 855 856 856 857 858 859 859 860 861 861 862 862 863 863 864 865 865 866 866 866 866 866 867 867 868 868 868 868 869 869 870 870 871 871 872 872 873
837 838 839 840 841 843 843 844 845 845 846 846 847 848 848 848 848 849 849 849 850 849 849 850 850 850 851 851 851 851 851 850 851 851 851 852 852 852 853 853 853 853 854 854 854 855 855 855 855 855 856 856 857 858 858 859 860 860 861 861 862 862 863 864 864 865 865 865 865 865 865 866 866 866 866 867 867 868 868 868 869 869 870 870 871
836 837 838 839 840 841 842 842 843 844 844 845 846 847 847 847 848 849 849 849 849 849 849 850 850 850 851 851 851 851 851 851 851 851 852 852 852 853 853 854 854 854 855 855 855 855 855 855 855 855 856 856 857 857 858 858 859 860 860 861 861 862 863 863 863 863 863 864 864 864 864 864 864 864 864 865 865 866 866 866 867 867 868 868 869
835 836 837 838 839 840 840 841 842 842 843 844 845 846 846 847 848 848 848 848 848 848 849 849 850 850 850 851 851 851 852 851 851 851 852 853 853 853 853 854 854 854 855 855 855 855 855 855 856 856 856 856 856 857 857 858 858 859 860 860 861 861 862 862 862 862 862 863 863 863 863 863 863 863 863 863 863 864 864 865 865 865 866 866 867
833 834 835 836 837 838 839 840 841 841 842 843 844 845 846 847 848 848 848 848 848 848 848 849 849 850 850 850 851 852 852 852 852 852 853 853 853 853 853 854 854 854 855 855 855 855 856 856 856 856 856 856 857 857 857 858 858 859 859 860 860 860 860 861 861 861 861 861 861 861 862 862 862 862 861 861 862 862 862 863 863 863 864 864 865
831 832 834 835 836 837 837 839 840 840 841 842 843 844 845 846 847 847 847 847 847 848 848 848 849 849 850 852 852 853 854 852 852 852 852 853 853 853 853 854 854 854 854 855 855 855 856 856 856 856 857 857 857 857 857 858 858 858 859 859 859 860 860 860 860 860 860 860 860 860 860 860 860 860 860 860 860 860 861 861 861 861 862 862 863
830 831 832 833 834 835 836 837 838 839 840 841 842 843 844 845 846 846 846 847 847 847 848 848 848 849 850 852 852 854 857 855 852 852 852 853 853 853 853 853 854 854 854 854 855 855 855 855 856 856 857 857 857 857 857 857 857 858 858 859 859 859 859 859 859 859 859 859 859 859 859 859 859 859 858 858 858 858 859 859 859 860 860 860 860
828 829 830 832 833 833 835 836 837 838 839 840 841 842 843 844 844 845 845 846 846 847 847 847 848 848 849 850 852 855 857 854 852 853 852 852 853 853 853 853 853 854 854 854 854 854 855 855 855 856 856 857 857 857 858 857 857 858 858 858 858 858 858 858 858 858 858 858 858 858 858 858 858 857 857 857 857 857 857 857 857 858 858 858 858
826 827 829 830 831 832 833 834 835 837 838 839 840 841 842 843 843 844 844 845 845 846 847 847 847 848 848 848 850 852 852 852 854 855 853 852 852 853 853 853 853 853 853 853 853 854 854 854 855 855 855 856 856 857 857 857 858 858 857 857 857 857 857 857 857 858 858 858 857 857 857 857 856 856 856 856 856 856 856 856 856 856 856 856 856
824 826 827 828 829 831 832 833 834 835 836 837 838 839 840 841 842 842 843 844 844 845 846 846 847 847 848 848 848 849 850 851 852 854 855 853 852 852 853 852 852 853 853 853 853 853 854 854 854 854 855 855 856 856 856 856 857 857 857 857 857 857 857 856 857 857 857 857 857 856 856 856 855 855 855 855 855 855 854 854 854 854 854 854 854
823 824 825 826 827 829 830 831 832 833 834 835 836 837 839 839 840 841 841 842 843 844 844 845 845 846 847 847 848 848 849 849 850 851 854 855 853 852 852 852 852 853 853 853 853 853 853 853 854 854 854 854 855 855 855 855 856 856 856 856 856 856 855 855 855 855 855 855 855 855 855 855 854 854 854 854 854 853 853 853 853 853 853 853 853
821 822 823 824 825 827 828 829 831 832 833 834 835 836 837 838 839 839 840 841 842 843 843 844 844 845 846 846 847 848 848 849 849 849 850 853 853 852 852 852 852 853 852 853 853 852 852 852 853 853 853 853 853 854 854 854 854 854 855 854 854 854 854 854 854 854 854 854 854 854 854 853 853 853 853 853 853 852 852 852 851 851 851 851 851
819 820 821 822 823 825 826 828 830 831 832 833 834 835 836 837 838 839 839 840 841 842 843 843 843 844 844 845 846 847 848 848 848 849 849 850 852 851 851 852 852 852 852 852 852 852 852 852 852 852 852 852 852 853 853 853 853 853 853 853 853 853 853 853 853 852 852 852 852 852 852 852 852 852 852 852 852 851 851 851 850 850 849 849 849
817 818 819 821 822 824 825 827 828 830 831 832 833 834 835 835 836 837 838 839 839 840 841 842 842 843 843 843 844 845 846 847 847 847 848 848 850 851 851 851 852 851 851 852 851 851 851 851 851 851 851 851 851 851 851 851 851 851 851 851 851 851 852 852 851 851 851 851 851 851 851 851 851 851 851 851 850 850 850 850 849 849 848 848 847
815 816 817 819 821 823 824 826 827 828 829 830 831 832 833 834 835 836 837 837 838 838 839 840 841 842 842 842 843 843 844 845 845 845 846 847 848 849 849 850 850 850 850 851 850 850 850 850 850 850 850 850 850 850 850 850 849 849 850 850 850 850 850 850 850 850 850 849 850 850 850 850 850 850 850 850 850 849 849 848 848 847 847 847 846
813 814 816 818 820 821 823 824 825 827 828 829 830 831 832 833 833 834 835 836 837 837 838 839 840 841 841 842 842 842 843 843 844 844 845 845 846 847 847 848 849 849 849 849 849 849 849 849 849 849 849 848 849 849 849 849 849 849 849 849 849 849 848 848 848 848 848 848 848 848 848 848 848 848 848 848 848 848 847 847 847 846 846 845 845
810 812 814 817 818 819 821 822 824 826 827 828 828 829 830 831 832 833 834 834 835 837 838 839 840 841 842 842 842 842 843 843 843 843 843 844 844 845 846 847 847 848 848 848 848 848 848 848 847 847 847 847 847 848 848 848 848 848 848 848 848 848 847 846 846 846 845 845 846 846 846 846 846 846 846 846 846 846 846 845 845 845 844 844 844
808 811 813 815 816 818 819 821 823 824 825 826 827 828 829 830 831 832 833 834 834 836 837 838 839 840 841 842 842 842 843 843 843 843 843 844 844 844 845 847 848 848 847 847 847 847 847 847 846 845 845 846 846 847 847 847 847 847 847 846 846 846 846 845 845 844 843 843 843 844 844 844 845 845 845 844 844 844 843 843 843 843 842 842 842
807 809 811 812 814 816 818 819 821 822 823 824 825 826 827 829 830 831 832 833 834 835 836 836 837 838 839 840 840 841 842 842 843 843 844 844 844 844 844 846 848 849 848 847 846 846 846 846 846 845 844 845 845 846 846 846 846 845 845 844 844 844 844 843 843 842 842 841 841 842 842 842 842 843 843 842 842 842 841 841 841 841 841 840 840
805 807 808 810 812 814 816 818 819 820 821 822 823 824 826 827 829 830 831 832 833 834 835 835 835 836 837 837 838 839 840 841 842 842 843 843 843 844 844 844 845 847 848 848 847 845 845 845 845 845 844 844 845 845 845 845 844 844 843 842 842 841 841 840 840 840 839 839 839 840 840 840 840 840 840 840 839 839 839 838 838 838 838 838 838
803 805 806 808 810 812 814 815 817 818 819 820 821 822 824 826 828 829 830 832 833 833 834 834 834 835 835 836 837 838 839 840 840 841 841 842 842 842 843 844 844 845 846 847 847 844 843 844 844 844 844 844 844 844 844 844 843 843 842 841 840 840 839 838 837 837 836 836 836 836 837 837 837 837 837 837 837 836 836 836 836 835 835 835 835
800 802 804 805 807 810 811 813 814 816 817 818 819 820 822 824 826 828 829 831 832 832 833 833 834 834 834 835 836 836 837 838 839 840 840 841 841 841 842 843 844 844 844 845 845 843 842 842 842 843 843 843 843 843 843 843 842 842 841 840 839 839 838 837 836 835 834 834 834 833 834 834 834 834 834 834 834 834 834 833 833 833 833 832 832
797 799 801 802 804 806 808 810 811 813 814 816 817 819 820 822 823 825 827 829 830 831 832 832 833 833 833 834 834 834 836 836 837 838 839 839 840 840 841 842 842 843 843 843 844 842 841 841 841 841 841 842 842 842 841 841 840 840 839 838 837 837 836 835 835 834 833 832 831 831 831 831 831 831 831 831 831 831 831 831 831 830 830 830 829
794 796 798 800 801 803 805 806 808 810 811 813 815 817 818 820 821 823 825 827 828 829 831 831 832 832 832 832 833 833 834 835 835 836 837 838 839 839 840 840 841 841 842 842 842 841 840 839 839 839 840 840 839 839 839 838 837 837 836 836 835 835 834 833 833 832 832 831 830 830 830 829 829 829 828 828 828 828 828 828 828 827 827 827 827
790 792 795 797 798 800 802 803 805 807 808 810 812 814 816 818 820 821 823 824 826 827 829 830 830 831 831 831 832 832 832 833 834 835 836 836 837 838 838 839 839 840 840 841 841 840 839 838 838 838 838 838 837 836 835 835 835 834 834 833 833 833 832 831 830 829 829 829 828 828 828 828 827 826 826 825 825 824 824 824 824 824 824 824 823
787 789 791 793 795 797 799 801 802 803 805 806 808 810 812 815 817 819 821 822 823 825 826 827 828 829 830 830 830 831 831 831 832 833 834 835 836 836 837 837 838 838 839 839 839 839 838 837 836 835 835 834 833 832 832 832 831 831 830 830 830 830 830 829 828 827 827 826 826 826 826 825 825 824 823 823 822 822 821 821 820 820 820 820 820
783 785 787 789 792 794 795 797 798 799 800 802 804 807 809 812 815 817 819 820 821 822 823 824 826 827 828 828 829 829 830 830 830 831 831 832 833 834 835 835 836 836 836 837 837 836 836 834 834 833 833 832 831 830 830 829 828 827 827 827 827 827 826 827 826 825 825 824 824 823 823 823 822 821 821 820 819 819 818 818 817 817 816 816 815
779 781 783 786 788 789 791 792 793 795 797 800 802 804 807 810 813 815 817 819 820 821 821 822 823 825 825 826 827 828 828 829 829 829 829 830 831 832 832 832 833 834 834 834 834 834 834 833 832 831 831 830 829 827 827 827 826 825 824 824 824 823 823 823 823 823 822 822 821 821 821 820 820 818 818 817 816 816 815 814 814 813 813 813 812
775 777 779 781 783 785 787 788 790 792 796 799 801 803 806 807 810 813 815 817 818 819 820 820 820 821 823 824 825 826 827 827 827 827 827 828 829 829 830 830 831 831 831 832 832 832 832 831 830 829 829 828 826 825 824 825 824 822 821 821 821 821 820 820 820 819 819 818 818 818 818 817 817 816 815 814 813 812 811 811 810 809 809 809 808
771 773 775 777 779 781 783 785 788 792 794 797 800 801 803 804 806 809 812 814 816 817 818 818 818 818 819 821 822 823 824 825 825 825 825 825 826 827 828 828 829 829 829 829 830 830 830 829 828 827 825 824 824 822 822 822 822 820 819 819 818 818 818 817 816 816 815 815 815 815 815 814 813 813 811 811 810 809 808 807 807 806 805 805 804
767 769 771 773 776 779 781 784 787 790 792 794 796 797 799 801 803 805 808 810 812 814 815 816 816 816 816 817 819 820 821 822 823 823 823 823 823 824 825 826 827 827 827 827 827 827 827 826 825 824 823 822 821 820 820 820 819 818 818 817 816 815 815 814 813 813 812 812 811 811 811 811 810 809 808 807 806 806 805 804 803 803 802 801 801
764 766 768 771 774 777 779 782 785 787 789 790 791 792 794 796 799 801 803 806 809 811 812 814 815 815 815 815 815 817 818 820 821 821 821 821 822 822 824 825 825 825 825 825 825 824 824 823 822 822 822 821 819 819 819 818 817 816 816 816 814 813 813 811 811 811 810 809 808 807 807 807 806 805 804 804 803 803 802 801 800 799 798 798 797
761 764 767 770 772 775 777 780 782 783 785 786 787 789 790 792 795 797 800 802 805 808 810 811 813 813 814 814 814 815 816 817 818 819 819 820 820 820 821 822 823 823 823 823 822 821 821 821 820 820 819 818 817 817 817 816 816 815 814 814 813 812 811 810 808 808 807 806 805 804 804 804 803 801 801 800 799 799 798 797 796 796 795 794 793
758 762 765 767 770 772 774 777 779 780 781 782 784 786 787 789 792 794 797 800 802 805 807 809 810 810 811 812 813 813 814 815 816 817 817 817 818 818 818 818 819 819 819 819 818 818 818 818 817 817 816 815 815 815 815 814 814 813 812 812 811 810 809 808 806 805 804 804 802 800 800 800 799 797 796 796 795 795 794 792 792 792 791 790 789
755 759 762 764 767 769 772 774 776 777 778 779 781 783 787 791 796 797 798 800 801 802 804 806 807 808 809 810 811 812 813 813 814 815 815 815 815 816 816 816 816 816 815 816 816 816 816 815 814 814 813 813 812 812 813 812 812 811 810 809 809 808 807 806 804 802 802 802 800 797 795 795 794 793 792 792 791 790 789 788 788 788 787 787 786
753 756 759 762 764 767 769 772 774 775 776 777 779 782 786 794 802 804 803 802 800 800 802 803 805 806 807 808 810 810 811 811 812 812 813 813 813 813 814 814 814 814 814 814 814 814 813 812 811 810 810 810 810 809 810 810 809 808 807 807 806 805 804 803 802 800 800 800 797 794 791 790 791 790 788 788 788 787 786 785 785 785 784 783 783
750 753 757 760 762 765 767 769 771 772 774 776 778 780 784 791 800 804 803 802 799 798 799 800 802 803 805 806 807 808 809 809 809 810 810 811 811 811 812 812 812 812 812 812 812 812 811 810 809 808 807 808 808 807 807 807 806 806 805 804 804 803 802 800 799 798 797 796 795 792 789 788 788 787 785 785 785 784 783 783 782 782 781 780 780
746 749 752 754 757 760 764 767 768 769 771 773 775 778 781 786 792 796 798 798 797 796 796 798 799 801 802 803 804 805 806 806 806 807 808 809 809 809 809 810 810 810 810 810 810 810 809 808 807 806 805 806 806 805 805 805 804 804 803 802 802 800 799 798 796 795 794 793 792 791 788 786 786 785 783 782 782 781 781 781 780 779 778 777 776
742 745 748 749 752 755 759 762 764 765 767 768 771 774 777 780 785 789 792 793 793 793 794 795 797 798 799 801 801 802 803 803 804 805 806 806 806 807 807 807 808 808 808 808 808 808 807 806 805 805 804 804 804 803 803 803 803 802 801 800 799 798 797 795 793 792 791 790 790 789 786 784 785 783 781 781 780 779 778 778 777 776 775 773 772
738 741 744 746 749 751 754 757 758 759 761 764 767 771 773 775 779 782 785 788 789 790 791 792 793 795 796 797 798 799 800 801 802 803 804 804 804 805 806 806 806 806 806 806 806 806 805 804 803 803 803 803 802 802 802 802 801 800 799 798 797 796 795 794 792 790 789 788 787 787 785 783 783 782 779 778 777 776 775 774 773 772 771 769 768
734 737 739 742 745 747 749 752 754 756 759 761 765 768 770 772 774 777 780 782 785 786 788 789 791 792 793 795 796 797 798 799 801 801 802 803 803 804 804 805 805 805 805 805 804 804 803 802 802 801 801 801 801 800 800 799 799 798 797 796 795 794 793 792 790 789 788 786 786 786 784 782 781 780 777 774 772 772 772 771 769 768 766 765 764
729 732 735 738 741 743 746 749 752 755 758 760 763 765 767 770 771 773 776 779 781 783 785 786 789 790 792 793 794 795 796 798 799 799 800 801 801 802 803 803 803 803 803 803 803 802 801 800 800 800 799 799 799 798 797 797 797 797 796 794 793 792 791 790 789 789 788 786 786 786 783 781 779 779 777 773 770 768 768 768 766 764 763 762 760
Wind_Speed
11 10 9 7 5 4 2 3 3 2 2 2 2 1 2 3 1 2 3 2 1 1 1 1 2 2 2 4 5 4 4 2 1 3 4 5 4 2 1 1 2 6 11 13 12 12 13 13 13 13 12 12 12 12 12 13 13 13 13 13 12 11 11 10 10 10 10 9 9 10 10 10 10 9 9 9 9 8 8 7 6 6 5 5 5
11 11 9 6 6 4 3 3 2 4 5 2 1 1 2 4 4 3 2 1 1 1 2 1 1 4 4 2 4 4 5 2 4 5 2 6 3 1 1 1 1 4 9 11 12 12 12 13 13 13 14 13 13 13 12 13 13 13 13 13 12 12 11 11 11 11 10 10 10 10 10 10 10 10 10 9 9 9 8 8 7 6 6 6 6
10 10 8 6 5 3 3 3 2 4 5 2 1 2 2 3 3 3 2 1 2 1 2 2 4 4 1 3 3 4 3 2 5 6 1 4 3 1 1 2 2 3 6 10 11 12 12 13 13 13 15 15 15 14 13 13 13 14 13 13 13 12 12 12 11 11 11 11 10 11 10 11 11 11 10 10 10 10 9 9 8 8 7 7 7
9 8 7 5 4 5 5 4 4 4 4 3 2 1 2 2 2 2 1 3 3 2 2 4 4 1 4 4 2 2 2 2 4 4 3 1 2 1 1 4 4 3 4 7 9 11 12 12 13 13 14 15 16 15 15 14 14 14 13 13 13 13 13 13 12 11 11 11 10 11 11 11 11 11 11 11 10 10 10 10 10 9 8 7 7
11 8 7 6 5 6 6 5 6 6 5 4 3 2 2 2 3 3 4 3 1 1 2 2 2 2 2 3 2 2 3 3 3 4 6 5 3 4 3 1 4 4 3 4 7 9 10 11 13 13 13 14 15 16 17 16 15 14 14 15 14 14 14 13 12 12 12 12 11 11 11 12 12 12 12 11 11 11 11 11 11 10 9 9 8
12 9 7 7 6 6 5 6 8 7 6 5 4 5 4 4 5 5 5 2 1 2 4 4 1 2 3 4 2 3 6 4 4 6 7 6 5 6 6 5 2 4 5 4 5 7 8 10 11 12 13 13 14 15 16 16 16 16 17 16 16 14 13 13 13 13 13 13 13 13 12 12 12 12 13 13 12 12 12 12 12 11 11 10 10
11 8 7 7 7 8 6 9 11 9 6 4 4 6 5 5 5 5 5 2 3 5 5 5 4 1 3 5 3 4 6 7 8 8 5 4 4 6 6 7 5 4 4 4 3 5 6 7 10 11 12 12 12 14 15 16 16 17 18 17 17 16 14 14 14 14 14 15 15 14 14 13 13 13 13 13 13 13 13 13 12 12 13 12 12
10 9 9 8 8 9 6 10 13 9 5 3 4 6 5 5 5 5 5 4 4 5 4 4 5 6 3 4 5 4 6 7 9 8 7 4 3 7 9 8 7 6 5 3 2 3 4 5 8 9 9 9 10 12 13 14 14 16 17 15 16 17 16 15 15 15 15 16 17 16 16 16 15 15 15 15 14 14 14 14 13 13 13 13 13
10 11 10 10 9 9 7 9 11 8 5 3 4 6 6 5 5 4 3 3 2 4 6 6 3 6 4 5 7 3 4 4 4 6 7 4 4 6 10 11 10 8 7 6 3 2 4 4 5 6 6 7 8 9 10 11 12 14 15 14 15 16 15 16 16 16 16 16 17 17 17 17 17 17 17 17 16 16 16 15 15 14 14 14 14
11 11 11 11 11 8 7 10 10 7 5 4 5 6 6 5 4 4 2 3 3 4 5 4 2 2 2 5 7 2 3 1 1 5 6 4 6 6 9 11 10 9 10 8 5 3 4 3 4 5 5 5 6 8 9 9 11 13 13 12 13 14 14 15 15 15 15 15 16 17 17 17 18 19 19 19 18 18 18 17 17 16 16 15 15
11 12 12 11 12 9 8 11 10 7 5 5 6 6 6 6 5 5 3 3 4 3 3 2 2 2 1 3 4 2 2 2 0 7 7 6 9 8 9 11 10 11 11 10 8 6 4 3 4 4 4 4 5 6 6 7 10 12 12 12 12 13 14 14 15 15 15 15 16 17 17 17 18 19 19 19 19 19 20 20 20 19 18 18 17
11 12 13 11 12 11 10 11 9 7 7 6 6 8 7 7 6 5 3 4 5 4 3 2 3 4 2 2 2 0 1 1 4 9 7 9 13 13 13 13 11 12 11 11 10 8 7 4 3 3 3 3 4 3 4 5 7 9 10 11 11 12 13 14 14 15 15 15 16 16 17 17 18 19 19 19 19 19 19 20 20 21 21 20 19
12 12 13 13 13 13 13 12 11 9 8 7 8 9 7 7 7 4 3 4 3 2 4 4 2 2 2 0 1 3 1 2 6 7 4 7 13 13 13 13 12 12 12 12 11 9 9 8 6 6 5 3 3 4 4 4 5 7 8 9 10 11 11 12 13 14 15 15 16 17 17 17 18 18 18 18 19 19 19 20 20 21 22 22 21
14 14 14 15 15 15 15 13 12 10 8 8 10 10 8 7 7 5 3 3 2 1 4 4 1 1 2 0 2 5 3 2 4 3 3 8 9 7 8 9 11 13 13 11 10 9 8 7 8 7 7 6 4 3 3 3 4 5 6 7 7 8 8 8 9 10 11 12 13 14 16 17 17 18 18 18 18 18 19 19 20 21 21 22 22
15 15 16 16 16 15 14 13 11 10 10 13 12 11 11 9 7 6 4 4 3 2 4 3 1 1 1 1 2 3 1 1 1 1 5 11 10 8 9 9 10 13 13 11 9 10 9 8 7 6 6 6 5 5 4 2 2 2 2 3 3 5 5 5 6 6 7 8 9 9 11 13 14 15 16 17 17 17 17 18 18 19 19 20 21
15 16 17 17 16 15 13 12 10 10 13 14 13 13 13 9 8 7 5 4 2 3 4 3 2 2 2 1 1 3 1 2 0 3 7 11 11 10 10 10 9 10 12 10 9 10 10 9 9 8 6 5 4 4 4 3 1 0 1 3 4 5 5 6 6 6 6 7 7 7 7 8 10 11 12 13 14 15 16 17 17 18 18 18 19
16 17 18 17 17 16 13 12 11 13 14 13 12 13 13 10 8 8 8 5 2 4 4 3 2 2 2 3 2 2 2 2 1 1 3 8 12 11 9 8 8 8 10 9 8 8 7 9 10 9 7 5 3 3 2 0 1 2 4 5 5 5 4 4 5 6 6 7 7 8 8 7 8 8 9 9 10 11 12 14 15 16 17 17 18
17 18 18 17 17 16 14 13 15 15 15 13 11 12 13 12 9 8 9 5 4 5 2 3 4 1 2 4 3 2 3 3 3 1 1 5 10 11 9 6 6 7 10 10 10 9 8 8 9 8 6 6 5 2 2 3 2 2 5 6 5 4 3 3 3 4 5 5 6 7 7 8 8 8 9 8 9 9 10 11 11 12 14 15 16
19 19 18 17 16 15 16 16 16 16 14 13 13 13 12 11 10 9 9 7 6 6 3 5 6 2 3 5 4 5 5 3 3 2 1 3 6 10 11 6 5 7 10 11 11 9 7 7 7 6 4 5 5 3 4 5 5 3 4 4 3 4 4 4 4 4 4 4 5 6 6 7 7 8 8 8 9 10 11 11 12 12 13 13 14
20 20 19 18 17 18 19 18 17 16 15 15 14 14 13 12 12 11 9 8 7 6 6 6 5 3 4 6 5 5 5 4 5 4 3 2 4 6 10 10 8 8 10 12 10 7 6 4 3 2 2 4 3 1 3 6 6 6 5 5 4 4 5 6 6 5 5 6 6 6 7 8 8 8 9 9 9 10 10 11 12 13 14 14 15
20 21 20 19 19 21 21 20 19 16 16 16 15 16 16 14 13 11 9 9 8 7 6 6 5 4 5 7 6 4 3 3 5 5 3 2 2 2 5 9 8 7 10 12 9 5 3 1 1 1 1 3 4 4 4 5 6 7 7 7 7 6 7 6 6 6 7 7 7 8 8 8 9 9 10 10 10 11 11 11 11 12 13 13 14
22 23 22 21 22 23 22 22 21 17 17 18 17 17 16 13 12 11 11 12 10 7 6 7 7 5 5 8 8 5 3 4 5 4 3 2 1 1 3 4 6 7 7 9 8 5 2 2 4 4 3 4 6 6 6 6 7 8 9 9 9 9 8 7 6 7 7 8 8 8 9 9 9 9 10 10 11 11 12 12 12 12 13 13 13
24 25 25 24 24 25 23 22 20 18 18 19 20 18 14 12 13 13 12 13 11 8 8 9 8 7 7 8 9 7 5 5 6 5 3 2 2 1 1 3 3 5 5 6 7 6 4 5 6 6 5 6 7 9 8 8 9 10 10 10 10 9 8 9 9 9 9 10 10 10 10 10 10 10 10 11 11 12 12 12 13 13 13 13 14
26 26 27 27 26 26 25 23 21 20 19 19 19 17 14 13 15 15 14 14 12 10 11 11 10 9 9 9 9 8 6 6 6 6 5 4 3 2 1 2 2 2 1 3 7 9 7 6 7 8 9 10 10 10 11 11 12 12 11 11 10 10 10 11 11 11 10 12 13 13 12 12 12 12 12 12 13 13 13 13 13 14 14 14 14
28 28 29 28 27 27 26 25 24 22 20 19 17 16 15 15 16 16 15 15 14 12 12 13 12 10 9 8 8 9 10 9 8 8 7 6 4 3 1 1 1 0 2 2 4 8 8 8 9 10 11 13 13 13 14 15 14 13 13 13 13 12 13 13 13 12 11 13 14 14 13 13 14 15 15 15 15 15 15 14 14 14 14 15 15
30 30 30 30 28 27 27 26 26 23 20 21 19 15 16 17 17 16 15 14 15 15 14 13 12 10 9 8 6 7 9 7 8 10 8 7 8 6 3 1 1 1 2 3 3 6 9 10 12 13 15 15 15 16 17 16 15 14 14 15 15 15 15 15 14 14 13 13 14 14 14 14 15 16 16 17 17 18 17 17 16 16 15 15 15
32 31 31 32 30 27 27 27 26 23 21 22 20 16 18 19 17 15 14 13 13 15 16 13 10 9 9 8 6 6 5 3 7 9 7 7 8 8 5 3 1 2 2 3 5 6 7 8 9 11 15 17 16 16 17 17 16 15 16 16 16 16 17 17 17 17 17 16 16 15 14 15 15 16 17 17 19 20 20 20 20 18 18 17 17
33 32 32 32 31 29 28 27 25 23 23 23 21 19 19 19 17 15 15 14 13 14 15 14 12 10 9 8 7 7 5 4 6 6 4 5 7 8 7 6 4 1 2 2 3 3 5 8 8 7 10 13 16 15 15 15 14 14 15 16 16 16 17 18 19 19 19 18 17 16 16 17 18 18 19 19 20 21 22 22 23 22 21 20 19
32 33 33 33 32 31 30 28 25 25 25 24 22 20 20 19 18 17 17 16 15 15 15 14 14 13 10 8 9 9 8 8 7 5 4 5 5 5 6 6 7 5 2 1 2 2 5 9 7 6 8 9 11 13 13 13 13 14 16 16 17 17 17 19 20 20 20 19 17 16 17 18 19 21 22 23 23 24 23 23 24 24 24 23 23
32 32 33 34 34 32 30 28 27 26 25 24 23 21 20 20 20 19 18 17 17 17 17 16 15 14 12 10 9 8 8 9 7 5 4 6 6 6 6 7 8 7 5 4 2 5 7 9 8 7 9 9 8 11 13 14 15 16 17 18 19 19 20 20 20 21 20 19 19 19 19 20 20 22 23 24 24 24 24 24 23 23 24 24 24
33 33 32 32 34 34 31 29 29 27 25 24 24 22 21 20 21 22 20 19 18 16 17 18 16 15 14 13 12 10 9 8 6 4 4 6 8 9 8 8 9 9 9 7 3 4 7 8 9 10 10 11 11 11 13 15 17 18 18 19 20 20 20 20 20 20 20 20 20 21 21 22 22 22 22 23 23 23 23 23 22 22 22 23 24
35 35 33 31 34 35 33 31 30 28 26 25 24 23 22 20 21 22 21 21 20 16 15 16 16 14 13 13 13 12 11 10 9 8 7 7 8 9 8 9 10 9 11 10 6 7 9 10 11 12 11 11 12 12 13 16 17 17 18 20 21 22 22 21 20 20 21 21 21 22 23 24 23 23 24 24 25 25 25 24 23 24 24 24 25
36 37 36 34 34 35 34 32 30 29 28 26 25 24 24 23 22 22 21 20 21 19 16 16 15 15 14 13 13 13 13 13 12 10 9 9 9 9 8 10 11 11 12 12 10 9 11 12 12 12 12 12 13 14 15 16 16 16 17 19 20 22 24 24 22 21 21 22 23 24 24 24 24 25 25 26 26 26 26 26 26 26 26 27 27
37 37 37 36 35 35 34 32 31 30 29 28 26 25 26 26 25 24 23 22 22 21 20 18 17 16 16 14 13 12 12 14 13 10 10 11 11 11 10 10 12 12 13 14 12 11 11 12 14 15 14 14 15 15 15 15 16 17 18 19 19 19 21 22 23 23 23 23 24 26 27 26 25 25 26 28 28 27 27 27 28 28 29 29 30
38 37 37 37 37 36 35 34 33 33 32 30 29 28 28 28 28 26 25 25 24 23 22 21 19 19 18 17 15 13 11 12 12 11 10 12 12 12 11 11 11 11 12 13 12 11 12 13 15 16 16 16 17 17 15 15 16 16 18 20 20 20 20 21 23 25 25 24 24 25 27 27 26 26 27 28 28 28 28 28 29 30 30 31 31
38 37 37 37 37 37 36 36 36 35 34 33 32 31 29 29 29 29 27 27 25 23 23 22 20 19 18 18 17 16 13 13 12 12 13 15 15 13 12 12 11 11 11 11 12 13 14 14 16 18 18 18 20 19 18 17 18 18 18 19 20 22 22 22 23 25 26 25 24 23 24 25 27 28 29 28 28 28 29 29 30 30 30 31 31
38 38 38 37 37 38 38 38 38 37 36 35 34 32 31 30 30 30 29 28 27 25 23 22 21 19 18 18 17 16 16 15 14 14 14 15 15 15 14 13 13 13 12 13 14 15 15 16 18 19 19 19 22 23 21 19 20 21 20 20 20 20 21 22 24 24 24 24 24 23 23 25 26 27 27 27 28 28 29 30 31 31 31 31 31
39 38 38 38 39 39 39 39 39 37 35 35 35 34 32 31 31 30 29 29 28 27 25 24 23 21 20 19 18 17 17 17 16 16 16 15 14 14 14 14 14 15 15 15 15 15 16 17 19 20 21 22 24 25 24 21 20 21 22 21 20 20 21 22 22 22 21 20 21 21 22 23 24 25 26 28 29 29 29 30 30 31 31 32 32
38 38 38 38 39 39 39 39 38 37 35 34 35 34 34 33 32 31 30 30 29 27 26 25 23 21 20 19 18 18 18 18 18 17 16 16 14 13 13 13 12 13 15 15 16 17 17 18 19 22 24 25 25 26 25 22 20 21 21 20 20 21 22 22 21 22 21 20 20 20 21 23 25 26 28 29 30 29 29 29 29 29 30 31 31
39 38 38 38 38 38 38 38 37 36 35 34 35 35 35 34 33 32 32 31 30 28 27 26 24 22 22 21 20 20 19 19 19 17 16 17 16 14 14 14 14 14 15 16 18 18 19 20 21 23 23 23 24 24 24 22 21 21 20 19 20 22 22 21 21 21 20 20 21 21 22 24 26 27 28 28 28 27 27 27 28 28 28 30 32
39 38 37 37 36 36 37 36 35 36 36 36 36 37 37 36 35 34 33 32 31 29 28 27 25 24 23 22 21 21 21 20 20 18 18 17 16 15 15 15 15 15 16 18 19 20 21 20 20 20 19 20 23 23 22 22 21 20 19 19 20 20 19 19 20 20 20 21 22 23 22 22 24 26 27 27 26 26 26 27 28 29 30 32 33
39 36 34 34 34 35 35 35 35 35 36 37 37 38 38 37 36 35 34 32 31 29 28 27 25 25 24 23 21 20 21 21 20 19 18 17 15 14 13 13 15 16 17 19 20 22 21 18 18 18 17 19 22 21 19 20 19 17 17 18 18 17 16 16 19 22 23 21 20 21 22 23 25 28 29 29 29 28 28 28 29 29 29 30 31
38 35 33 32 33 34 34 34 34 35 36 36 37 38 39 38 36 35 33 32 30 29 28 27 26 25 24 24 22 19 18 18 17 17 17 16 15 14 14 15 16 17 19 21 22 22 19 17 18 18 17 19 21 19 18 18 17 17 17 16 15 17 16 14 14 19 22 22 22 24 27 30 31 31 30 30 29 27 26 25 25 24 25 26 27
36 34 32 33 33 33 33 33 34 35 36 37 37 37 36 35 33 31 31 30 30 29 28 27 26 25 24 23 21 19 18 17 17 17 17 17 16 16 17 17 18 19 20 21 21 20 19 19 19 19 19 20 20 20 20 18 18 19 18 18 18 17 16 13 13 17 22 26 28 28 30 32 31 28 28 28 25 23 23 23 23 24 25 26 27
32 32 32 32 32 32 32 32 33 34 36 36 35 34 33 30 28 27 27 28 29 28 28 28 27 26 24 22 21 19 19 19 18 18 18 17 16 17 18 19 19 19 19 19 20 20 20 20 19 21 23 22 21 23 22 20 20 21 21 22 21 17 15 15 18 22 27 29 29 28 27 30 30 26 27 26 23 22 23 23 24 26 26 25 24
29 29 29 29 30 31 32 31 32 33 34 33 31 32 32 29 27 28 30 30 29 28 28 28 28 26 25 23 22 20 20 20 20 19 19 18 18 18 19 19 19 18 17 18 19 20 21 21 21 24 25 23 23 24 23 21 21 22 20 20 18 16 18 21 23 26 28 28 27 24 22 26 28 25 25 26 24 23 23 23 24 24 22 21 23
28 27 27 28 30 31 31 32 32 31 32 31 30 30 31 29 28 31 34 33 29 28 27 27 27 25 24 23 22 21 21 21 21 21 19 19 19 20 20 19 19 18 17 18 19 20 20 20 21 21 21 21 22 22 21 19 18 17 16 16 17 19 22 23 24 27 27 26 25 20 18 23 26 24 25 25 23 21 21 21 22 22 23 26 30
28 29 28 29 29 30 31 32 32 31 31 31 30 29 30 28 27 31 36 34 28 25 25 25 25 25 24 23 22 22 23 24 24 22 20 20 21 20 20 19 19 18 18 20 20 19 18 17 18 19 19 19 19 18 17 16 15 15 16 17 21 23 22 20 22 24 24 24 24 21 20 22 22 20 21 21 20 21 24 24 25 28 31 33 33
29 30 28 26 27 29 31 32 33 33 32 31 29 29 29 28 28 32 37 35 27 23 22 22 23 24 24 23 22 23 24 24 23 21 20 20 20 19 19 19 18 19 20 20 16 13 11 11 10 11 12 13 13 14 15 16 17 19 19 19 22 23 19 15 15 18 22 24 25 21 18 17 17 17 20 22 22 24 26 27 28 30 31 31 30
31 30 29 27 27 29 31 32 33 31 29 28 27 27 28 28 30 33 36 34 29 25 22 21 21 22 22 21 21 22 22 22 21 20 19 19 18 18 18 17 17 18 18 16 13 11 11 11 10 11 13 14 16 17 17 17 18 18 19 19 21 22 19 15 15 17 20 23 23 18 16 18 20 21 24 25 24 24 25 26 28 30 29 30 31
30 28 28 28 28 28 29 30 29 26 25 25 25 26 26 27 30 33 33 31 29 27 24 22 21 21 21 21 20 20 20 20 20 20 18 16 16 16 16 16 16 16 15 13 13 14 15 16 16 18 19 20 19 15 14 14 15 15 18 20 23 23 22 19 17 14 11 14 17 16 18 22 23 23 23 20 15 17 24 27 29 30 30 31 33
Wind_Direction
210 209 190 187 183 171 147 149 144 97 118 90 68 143 133 144 149 92 84 49 51 303 300 105 140 236 296 63 78 53 39 60 350 317 238 198 189 183 72 47 185 197 198 198 198 199 199 199 201 201 202 200 196 192 188 188 189 190 193 193 194 196 199 201 203 204 208 212 214 216 216 216 217 219 223 226 228 231 231 228 228 233 238 240 244
189 190 185 179 167 162 135 130 113 112 136 112 63 135 134 137 148 144 123 120 147 322 328 142 210 269 274 87 89 42 41 52 12 3 221 191 185 195 299 334 177 191 196 199 200 202 205 204 205 206 208 208 205 202 198 196 197 199 201 200 199 200 202 204 207 209 210 212 214 219 222 224 225 225 226 229 231 234 236 237 237 238 243 249 252
167 172 173 177 178 170 134 145 148 121 128 147 150 159 177 170 168 171 166 172 158 85 342 324 319 307 265 140 113 58 54 62 34 31 123 188 194 162 262 260 207 181 188 194 196 201 209 209 211 212 213 213 212 211 208 205 205 206 207 207 207 208 211 210 211 213 213 215 215 218 222 225 229 230 230 231 233 236 239 243 245 245 248 252 259
177 178 185 195 184 159 142 149 160 138 134 168 188 180 188 208 188 166 140 145 142 139 309 329 333 22 98 108 128 67 48 85 66 49 62 101 201 132 310 267 237 199 180 194 195 198 206 210 213 215 214 216 218 218 217 215 214 212 211 212 213 214 217 218 217 218 220 222 222 223 224 225 228 231 233 235 236 239 242 246 250 253 255 254 258
203 205 206 206 184 161 148 154 169 172 180 193 211 207 178 180 164 138 138 147 133 168 239 287 317 266 145 111 127 63 63 106 97 77 75 81 100 84 59 294 243 220 188 193 201 202 205 207 212 214 215 218 220 221 220 220 219 220 219 218 218 218 219 222 223 223 227 230 230 230 229 230 230 230 232 235 237 240 242 246 250 255 259 263 266
208 211 204 200 185 165 162 176 185 197 207 204 209 206 195 180 163 148 150 166 259 218 237 220 185 309 217 163 144 82 82 93 101 106 103 97 89 75 83 92 133 206 197 192 201 208 210 211 213 214 215 218 219 220 220 222 222 224 225 224 226 226 225 228 231 230 229 230 233 235 234 236 237 236 235 235 236 238 241 244 249 254 259 264 267
215 217 209 209 192 174 191 200 196 209 218 206 208 210 206 193 180 168 166 191 216 211 252 239 203 200 170 165 159 100 84 85 100 112 106 104 94 76 93 102 108 150 185 199 205 212 219 222 223 222 220 221 223 220 220 222 224 227 229 227 230 234 237 239 240 239 236 233 235 237 237 239 241 242 241 240 240 240 242 244 246 251 256 260 263
218 219 212 212 192 175 196 204 196 203 204 194 210 201 192 188 181 176 184 200 213 222 279 284 222 205 202 197 179 118 88 92 100 105 93 100 106 85 92 97 109 125 139 169 198 218 226 231 233 234 230 230 232 225 221 221 222 230 232 230 232 236 239 241 242 242 241 239 239 240 241 240 241 244 245 245 245 246 247 247 248 250 253 257 260
218 216 209 204 185 173 192 200 196 199 192 192 206 192 189 189 169 161 191 210 242 270 286 303 256 205 216 206 185 139 106 109 99 114 105 122 143 94 91 97 106 112 110 128 150 172 193 219 237 239 237 235 234 230 226 221 220 228 233 233 236 239 240 242 243 243 242 241 242 244 245 244 243 244 246 247 249 250 251 252 253 254 256 258 260
214 208 206 199 179 176 202 204 201 204 201 195 192 193 198 194 166 151 182 240 257 279 274 283 285 193 178 173 176 146 133 184 295 149 128 132 153 116 97 103 102 103 102 108 113 128 161 195 223 226 234 233 228 230 231 226 221 222 226 230 235 239 241 243 243 243 243 243 246 248 248 247 246 246 246 248 250 252 254 255 256 258 259 260 262
209 203 206 201 181 187 208 200 202 211 212 206 194 191 176 162 165 173 194 228 211 227 256 249 235 219 169 142 154 115 163 229 188 151 125 104 143 143 119 111 98 100 102 99 99 99 118 159 189 196 213 219 221 228 229 228 222 219 222 226 232 236 238 240 242 244 244 244 247 250 250 248 248 249 250 251 252 253 255 256 257 258 258 260 263
210 205 207 202 186 198 206 195 205 216 216 217 192 179 162 157 178 194 193 191 194 212 225 214 225 218 190 125 147 228 232 223 137 145 129 103 125 130 120 114 103 102 101 97 96 85 81 92 122 133 155 193 204 212 213 222 221 218 223 228 234 238 239 243 246 249 250 250 250 252 252 251 250 252 253 255 255 255 256 257 259 259 259 259 261
218 211 209 203 194 202 209 208 218 220 220 211 178 169 166 169 186 195 179 183 205 227 207 203 207 198 198 43 188 195 206 141 143 153 159 125 123 120 115 114 108 107 104 99 94 84 79 75 82 93 91 112 164 186 195 210 214 217 225 232 240 246 249 253 255 256 258 259 258 257 258 257 256 256 255 256 256 256 258 260 262 261 261 261 261
221 213 206 205 204 208 214 220 222 221 215 184 169 174 177 178 184 189 189 202 261 270 186 185 159 277 242 88 134 173 176 156 171 215 196 146 135 124 120 115 110 117 122 112 97 91 93 89 84 80 72 73 89 119 151 192 211 218 225 233 242 250 258 263 265 264 264 264 264 262 261 261 261 261 260 259 259 259 260 262 263 261 261 261 262
218 209 204 207 213 217 218 223 222 216 197 173 173 182 183 189 194 194 193 207 259 232 167 172 185 251 229 129 130 146 155 241 227 242 148 145 145 135 123 116 113 127 133 122 103 93 96 110 108 88 74 63 64 75 82 109 175 205 238 253 255 258 265 275 280 278 276 277 276 272 269 269 268 266 265 263 262 263 263 264 263 262 261 261 263
214 208 206 209 215 218 219 223 218 201 184 174 175 177 178 192 199 195 187 181 243 204 177 189 189 150 123 147 129 108 108 270 305 98 125 137 146 144 131 120 115 133 139 126 109 97 91 105 119 113 97 75 65 68 67 84 123 98 349 328 319 296 276 271 276 281 284 288 290 292 289 286 284 280 275 270 268 267 267 265 263 262 262 262 264
213 209 209 210 213 216 219 217 197 179 176 176 178 181 186 192 189 190 190 184 174 174 187 201 168 127 142 136 82 94 194 210 153 147 150 144 149 153 148 127 108 125 147 141 126 116 104 107 119 124 120 117 114 94 81 115 291 356 349 334 334 331 305 279 276 281 285 286 290 294 296 295 294 294 291 287 282 279 277 272 265 262 263 264 265
212 209 210 211 211 212 210 195 177 170 173 176 181 187 188 185 183 185 184 183 166 156 169 192 173 116 153 145 93 124 176 139 125 198 227 166 162 162 162 144 115 130 152 156 146 132 127 125 129 131 126 134 147 157 233 260 261 322 335 329 333 349 353 336 311 305 305 301 297 297 299 301 301 299 297 295 291 286 286 282 275 273 272 271 270
209 208 210 208 206 199 188 177 172 172 174 181 187 185 178 173 175 176 174 173 160 144 130 158 164 127 133 150 121 130 147 143 157 160 125 205 204 179 174 181 165 157 161 163 161 150 141 139 138 139 142 151 155 172 224 241 241 257 307 312 312 336 344 338 329 322 322 322 320 316 316 318 317 313 308 302 294 287 285 284 282 281 280 278 277
205 206 206 203 197 185 177 176 177 178 180 185 185 179 172 167 172 177 180 185 173 150 143 149 156 153 144 144 142 149 150 150 166 165 139 195 241 195 181 189 183 176 179 175 173 163 148 143 131 124 164 178 185 201 209 223 234 251 280 291 293 316 330 323 314 308 309 312 315 317 317 318 319 318 317 312 305 299 294 289 286 283 280 278 278
204 204 201 198 191 179 178 184 181 178 181 180 177 175 172 175 183 183 175 176 175 163 154 146 148 173 177 160 156 161 159 164 182 176 137 141 233 208 176 184 187 188 183 178 178 169 149 142 329 327 217 206 233 233 213 221 234 248 269 284 291 304 314 313 310 307 304 303 303 304 306 308 310 311 311 311 308 307 304 301 298 294 290 285 281
200 200 198 195 189 180 181 189 186 180 179 178 179 180 177 183 185 173 158 159 167 170 161 149 148 165 182 175 172 176 187 189 178 163 136 142 180 57 72 135 178 194 184 175 174 171 196 276 288 285 275 254 246 238 230 233 242 250 260 275 288 298 300 295 301 308 304 300 296 293 294 296 298 300 301 304 305 305 305 305 304 303 301 297 292
194 196 197 193 186 181 182 189 188 184 184 184 186 185 181 181 174 164 160 161 168 174 165 157 160 169 174 176 180 184 191 180 161 151 152 148 131 127 57 71 150 192 192 191 191 193 228 268 274 269 268 263 251 249 245 234 242 250 252 266 280 285 287 287 292 301 304 304 299 291 288 288 289 290 291 293 296 298 300 302 303 303 303 302 299
192 194 193 188 185 184 185 188 186 183 183 182 184 187 185 177 170 170 170 169 171 174 173 173 176 181 180 181 188 190 193 187 175 170 173 172 158 174 188 56 82 144 168 208 212 214 230 263 267 258 259 257 248 248 251 247 250 254 256 267 275 272 273 278 279 285 297 304 303 295 288 288 289 289 288 287 287 289 291 293 295 297 299 299 300
193 191 187 185 187 189 189 189 187 184 182 182 184 189 188 178 172 178 183 185 184 182 184 184 183 189 188 194 214 208 198 198 194 186 182 187 194 189 177 69 121 61 338 298 229 222 240 271 272 259 253 248 238 235 245 251 252 258 268 277 280 275 271 265 263 271 285 297 300 291 283 287 292 293 291 288 286 285 284 284 286 288 291 294 296
193 191 186 186 190 193 193 192 187 182 183 186 189 187 183 180 178 184 188 189 191 191 191 187 187 198 200 203 214 194 182 189 195 196 198 198 194 185 160 72 22 340 319 305 290 251 255 277 276 260 249 241 236 235 239 243 248 257 268 271 273 275 274 266 263 271 281 291 297 288 279 283 290 292 292 290 287 285 282 280 280 281 284 287 290
193 192 188 188 192 193 190 186 182 180 180 182 187 184 177 176 181 187 184 180 185 189 190 190 192 199 202 205 208 190 180 180 187 198 212 206 189 179 167 137 50 329 308 286 297 278 272 305 310 279 258 244 236 237 240 242 248 257 261 263 266 270 273 273 274 278 284 290 295 289 280 282 286 289 290 289 288 285 282 280 278 277 279 282 284
195 193 189 190 194 192 187 184 185 188 185 182 185 185 179 176 179 186 187 185 186 187 190 193 192 193 201 213 225 229 235 229 203 199 200 190 178 174 177 170 167 238 310 297 299 284 294 328 346 333 296 263 243 240 244 250 261 266 266 272 278 276 274 275 276 277 280 284 287 287 284 284 285 286 286 286 286 285 284 280 277 275 276 278 281
196 194 192 193 195 193 190 191 194 195 190 187 189 190 189 186 182 185 192 195 194 195 199 200 196 197 203 211 221 230 239 242 239 236 220 205 194 190 203 200 188 186 189 268 278 260 297 321 332 342 335 305 261 251 251 263 284 287 282 286 291 288 285 283 280 278 278 277 275 276 279 282 284 285 286 286 285 285 283 280 276 274 273 274 277
196 194 194 195 194 194 194 195 196 195 192 192 195 196 198 196 192 192 195 197 198 201 206 209 207 205 206 211 215 222 231 233 240 251 228 218 226 229 228 224 219 212 199 198 250 261 277 307 315 313 325 325 298 271 260 268 286 291 289 292 295 296 297 296 293 288 285 282 281 280 279 278 280 283 285 285 284 282 281 280 277 274 274 274 276
198 195 196 196 195 195 195 194 193 194 195 195 197 199 201 201 199 199 199 200 202 207 211 213 215 213 215 222 222 220 222 219 219 229 226 227 231 228 225 225 226 229 222 208 216 258 260 280 295 299 304 307 307 296 278 274 282 286 284 283 285 290 293 294 295 295 292 291 290 289 287 285 284 284 285 283 280 276 276 277 276 275 275 277 279
199 198 197 194 193 194 194 191 191 194 197 197 198 200 200 201 200 201 205 205 205 211 214 212 216 217 219 223 221 218 221 222 221 223 231 236 223 209 211 217 217 227 235 227 219 246 259 270 282 288 292 295 297 296 288 285 287 287 283 279 276 276 279 283 286 289 292 294 294 292 291 290 290 289 287 285 282 278 274 272 273 274 276 279 281
198 198 198 195 192 192 192 192 193 195 197 197 199 200 199 200 203 203 205 205 207 215 218 216 217 220 224 226 223 221 223 226 223 218 226 234 224 217 222 223 222 228 235 232 231 248 264 271 275 280 286 286 281 278 279 281 285 287 288 288 282 274 272 276 279 279 282 288 291 290 288 289 291 291 288 286 285 282 277 271 269 271 274 278 282
199 199 199 199 197 195 194 196 196 197 199 200 199 199 198 200 204 204 204 205 210 216 219 220 219 220 226 228 223 222 223 222 219 215 223 231 228 230 233 234 239 242 239 239 241 247 260 271 277 282 287 286 281 279 277 277 282 287 288 289 288 280 274 277 281 281 280 280 283 284 282 283 286 288 286 285 284 283 281 277 272 271 273 277 280
200 200 200 200 201 200 199 199 199 199 201 201 200 199 199 200 203 205 206 208 212 215 218 223 223 223 227 226 224 226 223 217 216 218 227 229 226 229 237 241 242 238 233 234 239 245 255 266 274 278 284 288 287 286 285 284 288 292 290 286 283 280 280 282 285 286 285 283 282 281 278 278 281 283 283 282 282 281 281 282 281 280 280 280 281
201 200 201 201 201 200 199 198 199 200 201 201 200 200 202 203 205 209 210 211 214 216 216 218 220 222 224 225 230 234 230 221 219 225 230 228 226 231 238 237 226 218 219 227 241 254 257 260 267 273 280 286 287 286 287 288 290 293 294 290 284 279 280 283 285 285 284 282 282 280 277 277 281 283 282 281 280 278 278 279 281 282 283 285 285
202 201 201 201 201 200 200 200 200 201 201 201 199 200 203 205 208 211 213 214 215 217 217 217 219 222 226 230 235 236 232 227 224 226 229 225 226 233 235 231 226 228 238 246 252 256 256 259 269 278 283 285 284 286 289 288 288 290 292 290 284 279 278 282 286 286 284 280 278 277 277 279 282 282 280 278 278 279 279 279 279 279 280 282 284
203 202 202 202 202 202 203 203 202 202 202 201 200 200 202 204 207 211 214 216 218 220 222 223 223 225 229 233 235 232 231 232 229 228 228 222 222 230 230 227 230 237 242 245 247 252 256 263 272 279 282 282 281 285 289 289 285 286 288 288 283 277 276 282 288 291 289 280 275 277 279 281 283 281 278 278 279 281 282 282 282 281 279 280 282
204 203 203 203 204 204 204 204 204 203 201 201 201 201 202 203 206 209 212 215 218 221 223 224 222 220 222 225 227 228 229 233 232 228 223 216 213 217 221 224 233 239 241 243 247 252 254 260 267 271 276 280 281 283 287 289 285 282 284 282 279 280 283 284 287 291 291 283 278 282 284 284 284 283 281 281 282 283 283 282 283 283 281 281 281
206 205 204 204 204 204 205 205 204 203 202 201 201 201 202 204 206 208 211 213 215 218 220 222 222 220 219 221 224 227 228 229 228 226 223 221 222 227 232 238 245 249 251 250 250 250 250 253 259 265 271 278 280 281 284 286 282 280 282 279 276 282 288 288 286 289 289 286 286 290 291 291 289 286 285 285 285 286 286 284 284 282 281 280 280
208 207 207 205 204 203 204 204 203 202 202 202 203 202 201 202 205 207 208 209 213 216 220 223 225 225 225 225 225 228 229 229 230 233 234 235 237 240 243 247 251 254 255 252 249 248 250 252 259 267 273 276 278 280 283 282 278 279 286 287 281 281 285 286 286 287 288 292 295 296 296 296 292 289 289 289 289 289 288 285 283 282 282 282 283
208 208 207 205 204 203 203 202 201 202 203 204 205 205 203 202 203 204 205 208 211 215 220 223 225 228 230 229 228 227 226 227 231 236 240 242 240 238 240 247 250 249 248 248 249 251 254 258 265 271 272 272 276 280 282 283 282 285 292 291 287 289 292 291 290 291 293 298 301 299 297 295 291 288 288 289 289 289 287 283 283 284 285 286 286
207 206 205 204 204 205 204 202 202 203 205 206 207 207 206 204 204 204 205 208 210 213 219 222 223 225 227 228 227 223 222 225 231 236 237 235 229 228 236 244 248 248 247 247 250 255 259 262 266 267 265 268 276 282 282 285 288 290 290 285 286 295 298 294 292 294 297 301 303 298 295 293 291 288 288 289 291 292 291 290 291 293 293 293 292
203 202 203 204 205 205 204 202 203 206 209 210 210 209 207 207 208 207 206 209 211 213 217 221 223 224 224 224 224 224 227 231 232 229 225 225 229 237 245 248 250 253 254 254 257 261 264 264 264 266 266 269 277 281 282 286 288 287 284 281 285 290 287 283 284 288 296 302 301 295 293 294 294 291 291 294 298 300 300 299 300 300 300 300 297
197 198 201 204 204 204 203 203 205 208 213 214 212 209 205 204 210 213 212 214 214 214 218 222 224 226 224 222 224 228 232 234 231 225 223 228 238 247 252 253 255 259 262 265 268 270 270 270 269 272 275 275 277 283 289 289 284 282 282 284 286 283 275 278 283 287 297 302 298 291 290 295 297 293 290 295 300 301 300 300 301 302 302 302 300
192 193 196 201 204 204 204 204 206 210 213 213 212 211 203 198 208 220 223 221 218 217 219 222 224 225 225 226 227 228 229 231 230 228 229 236 247 257 259 257 259 263 266 269 272 273 276 277 276 278 282 282 282 289 297 294 284 279 280 281 281 279 281 287 289 291 297 300 294 286 284 291 296 291 288 293 298 296 296 298 299 301 301 301 300
188 189 195 201 204 203 203 205 206 210 213 213 215 213 202 196 207 222 225 224 220 218 220 222 223 224 225 227 226 224 225 228 230 233 238 247 256 262 262 261 264 268 269 272 276 280 284 287 286 286 289 288 287 290 295 292 283 276 275 277 283 287 289 290 290 291 294 297 295 283 273 284 293 289 287 296 301 299 299 299 299 301 301 300 299
187 192 199 203 202 201 203 206 208 211 215 217 216 211 203 202 209 219 221 220 217 216 218 220 222 224 225 224 222 224 229 234 236 241 247 255 259 259 257 260 264 267 272 279 286 291 295 294 292 291 290 287 285 288 292 290 283 281 285 288 291 291 287 284 287 289 291 296 297 287 274 281 293 295 298 307 312 309 306 304 303 303 302 300 301
184 191 197 199 202 204 204 207 210 212 213 214 212 209 209 210 209 212 217 216 211 210 212 213 216 218 219 222 225 230 236 240 244 248 252 255 255 254 254 257 262 268 277 288 295 297 294 289 287 289 290 291 292 296 298 294 290 293 294 293 294 293 286 280 282 284 287 294 299 296 289 294 306 314 315 317 316 312 308 307 306 305 303 304 305
182 189 192 194 200 204 205 208 211 210 208 207 206 207 210 209 206 209 214 213 210 210 210 210 212 214 218 225 231 235 239 243 247 250 252 253 252 252 253 256 264 274 284 290 286 275 269 271 277 285 293 303 306 304 300 295 295 298 294 292 296 292 280 273 276 281 289 295 298 302 309 315 320 323 323 319 314 309 308 308 308 307 307 308 307
183 189 192 193 196 199 204 206 205 202 201 201 202 202 203 203 205 210 212 210 210 212 212 213 216 220 225 229 229 231 237 241 246 250 252 251 251 252 253 257 267 274 278 276 273 275 279 283 288 296 303 309 310 308 308 305 302 302 299 300 300 291 278 275 283 290 295 296 300 308 316 316 317 320 321 318 311 308 309 309 307 306 306 306 305